Weather History for KBJJ - February, 2014

Change the Weather History Date:

Wednesday, February 26, 2014

  Actual Average Record
Temperature  
Mean Temperature 14 °F -  
Max Temperature 19 °F 38 °F 54 °F (2009)
Min Temperature 10 °F 23 °F 3 °F (2015)
Degree Days  
Heating Degree Days 50    
Moisture  
Dew Point 5 °F    
Average Humidity 68    
Maximum Humidity 81    
Minimum Humidity 50    
Precipitation  
Precipitation 0.00 in - - ()
Sea Level Pressure  
Sea Level Pressure 30.00 in    
Wind  
Wind Speed 15 mph (WNW)    
Max Wind Speed 20 mph    
Max Gust Speed 26 mph    
Visibility 7 miles    
Events Snow    
Averages and records for this station are not official NWS values.
T = Trace of Precipitation, MM = Missing Value Source: NWS Daily Summary

Daily Weather History Graph

Daily Weather History Graph

Search for Another Location

Airport or City:

Trip Planner

Search our weather history database for the weather conditions in past years. The results will help you decide how hot, cold, wet, or windy it might be!

Date:

Astronomy

Feb. 26, 2014 Rise Set
Actual Time 7:06 AM EST 6:15 PM EST
Civil Twilight 6:38 AM EST 6:42 PM EST
Nautical Twilight 6:06 AM EST 7:14 PM EST
Astronomical Twilight 5:35 AM EST 7:46 PM EST
Moon 4:52 AM EST (2/26) 3:27 PM EST (2/26)
Length of Visible Light 12h 04m
Length of Day
11h 09m
Waning Crescent, 10% of the Moon is Illuminated
Feb 26
Waning Crescent
Mar 1
New
Mar 8
First Quarter
Mar 16
Full
Mar 23
Last Quarter

Hourly Weather History & Observations

Time (EST) Temp. Windchill Dew Point Humidity Pressure Visibility Wind Dir Wind Speed Gust Speed Precip Events Conditions
12:09 AM 19.9 °F 5.2 °F 10.9 °F 68% 29.96 in 9.0 mi WNW 17.3 mph 26.5 mph 0.00 in   Overcast
12:56 AM 19.9 °F 4.8 °F 9.0 °F 62% 30.01 in 10.0 mi WNW 18.4 mph 24.2 mph 0.00 in   Overcast
1:51 AM 17.6 °F 2.7 °F 12.2 °F 79% 29.97 in 6.0 mi NW 16.1 mph - 0.00 in Snow Light Snow
1:56 AM 17.1 °F 1.0 °F 12.0 °F 81% 30.02 in 5.0 mi NNW 18.4 mph - 0.00 in Snow Light Snow
2:32 AM 17.1 °F 3.0 °F 12.0 °F 81% 29.97 in 2.0 mi WNW 13.8 mph - 0.00 in Snow Light Snow
2:44 AM 16.0 °F -0.9 °F 10.0 °F 77% 29.97 in 5.0 mi WNW 19.6 mph - 0.00 in Snow Light Snow
2:56 AM 16.0 °F 1.1 °F 9.0 °F 74% 30.02 in 7.0 mi NW 15.0 mph - 0.00 in Snow Light Snow
3:56 AM 15.1 °F -0.6 °F 3.9 °F 61% 30.03 in 10.0 mi NW 16.1 mph - 0.00 in   Overcast
4:49 AM 15.1 °F 1.8 °F 7.0 °F 70% 29.97 in 5.0 mi NW 11.5 mph - 0.00 in Snow Light Snow
4:56 AM 15.1 °F 1.1 °F 7.0 °F 70% 30.04 in 8.0 mi NW 12.7 mph - 0.00 in Snow Light Snow
5:14 AM 14.0 °F -1.4 °F 8.1 °F 77% 29.99 in 1.8 mi NW 15.0 mph - 0.00 in Snow Light Snow
5:31 AM 12.9 °F -2.2 °F 8.1 °F 81% 30.00 in 2.0 mi NW 13.8 mph - 0.00 in Snow Light Snow
5:38 AM 12.9 °F -1.6 °F 8.1 °F 81% 30.00 in 1.5 mi NW 12.7 mph - 0.00 in Snow Light Snow
5:45 AM 12.9 °F -2.8 °F 7.0 °F 77% 30.00 in 3.0 mi NW 15.0 mph - 0.00 in Snow Light Snow
5:56 AM 12.0 °F -5.1 °F 7.0 °F 80% 30.07 in 3.0 mi NW 17.3 mph - 0.00 in Snow Light Snow
6:17 AM 10.9 °F -5.9 °F 5.0 °F 77% 30.02 in 7.0 mi NNW 16.1 mph - 0.00 in   Overcast
6:45 AM 10.9 °F -4.7 °F 3.9 °F 73% 30.02 in 7.0 mi NW 13.8 mph - 0.00 in Snow Light Snow
6:56 AM 10.9 °F -2.6 °F 3.9 °F 73% 30.09 in 9.0 mi NW 10.4 mph - 0.00 in   Overcast
7:04 AM 10.0 °F -3.7 °F 3.9 °F 76% 30.03 in 10.0 mi NW 10.4 mph - N/A   Mostly Cloudy
7:22 AM 10.9 °F -4.7 °F 5.0 °F 77% 30.03 in 2.5 mi NNW 13.8 mph - 0.00 in Snow Light Snow
7:30 AM 10.9 °F -5.9 °F 5.0 °F 77% 30.03 in 1.5 mi NW 16.1 mph - 0.00 in Snow Light Snow
7:33 AM 10.9 °F -4.1 °F 5.0 °F 77% 30.04 in 2.0 mi NW 12.7 mph - 0.00 in Snow Light Snow
7:41 AM 10.9 °F -4.7 °F 3.9 °F 73% 30.04 in 8.0 mi NW 13.8 mph - 0.00 in Snow Light Snow
7:56 AM 10.0 °F -5.9 °F 1.9 °F 70% 30.11 in 10.0 mi NW 13.8 mph - 0.00 in   Scattered Clouds
8:56 AM 10.9 °F -4.7 °F 3.9 °F 73% 30.14 in 10.0 mi NW 13.8 mph - N/A   Mostly Cloudy
9:43 AM 12.0 °F -4.0 °F 3.0 °F 67% 30.09 in 10.0 mi WNW 15.0 mph - N/A   Scattered Clouds
9:56 AM 12.0 °F -4.0 °F 1.0 °F 61% 30.16 in 10.0 mi WNW 15.0 mph - N/A   Partly Cloudy
10:56 AM 12.9 °F -1.6 °F -0.9 °F 54% 30.14 in 10.0 mi NW 12.7 mph - N/A   Partly Cloudy
11:56 AM 12.9 °F -0.2 °F -0.0 °F 56% 30.11 in 10.0 mi West 10.4 mph - N/A   Mostly Cloudy
12:56 PM 17.1 °F 3.6 °F 1.9 °F 52% 30.08 in 10.0 mi West 12.7 mph 20.7 mph N/A   Mostly Cloudy
1:56 PM 17.1 °F 2.5 °F 1.9 °F 52% 30.03 in 10.0 mi West 15.0 mph 23.0 mph N/A   Overcast
2:56 PM 17.1 °F 2.5 °F 3.0 °F 54% 30.01 in 10.0 mi West 15.0 mph - 0.00 in   Mostly Cloudy
3:56 PM 17.1 °F 2.5 °F 1.9 °F 52% 29.98 in 10.0 mi West 15.0 mph 19.6 mph N/A   Scattered Clouds
4:56 PM 17.1 °F 3.0 °F 1.0 °F 50% 29.95 in 10.0 mi West 13.8 mph - N/A   Clear
5:56 PM 16.0 °F 2.3 °F 1.0 °F 52% 29.92 in 10.0 mi WSW 12.7 mph - N/A   Clear
6:56 PM 14.0 °F 3.9 °F 1.9 °F 59% 29.91 in 10.0 mi West 6.9 mph - N/A   Clear
7:56 PM 12.9 °F 5.2 °F 3.9 °F 67% 29.88 in 10.0 mi SSW 4.6 mph - N/A   Clear
8:56 PM 15.1 °F 2.5 °F 3.0 °F 59% 29.84 in 10.0 mi SSW 10.4 mph - N/A   Clear
9:56 PM 16.0 °F 2.9 °F 3.9 °F 59% 29.84 in 10.0 mi WSW 11.5 mph - N/A   Clear
10:56 PM 16.0 °F 0.6 °F 3.0 °F 57% 29.81 in 10.0 mi WSW 16.1 mph - N/A   Scattered Clouds
11:56 PM 16.0 °F 1.1 °F 1.9 °F 54% 29.78 in 10.0 mi WSW 15.0 mph 21.9 mph N/A   Scattered Clouds